[[{"header":{"parameterUnit":"m.s-1","parameterCategory":1,"la1":30.2991,"la2":30.254,"lo1":-89.0895,"lo2":-89.0444,"dx":0.0017,"dy":0.0017,"nx":28,"ny":28,"refTime":"2022-11-16T15:00:00:Z","depth":0,"parameterNumber":2,"parameterNumberName":"U-component_of_WINDS"},"data":[0,0,0,0,0,0,0,0,0,0,0,0,0,0,0,0,0,0,0,0,0,0,0,0,0,0,0,0,0,0,0,0,0,0,0,0,0,0,0,0,0,0,0,0,0,0,0,0,0,0,0,0,0,0,0,0,0,0,0.8492,0.8492,0,0.8457,0.8457,0.8456,0.8452,0.8452,0.8453,0.8453,0.8414,0.8413,0.8412,0,0,0,0,0,0,0,0,0,0,0,0,0,0.8553,0.8552,0.8492,0.8492,0.8491,0.8457,0.8457,0.8456,0.8452,0.8452,0.8453,0.8453,0.8415,0.8413,0.8412,0,0,0,0,0,0,0,0,0,0,0,0,0,0.8523,0.8552,0.8492,0.8485,0.8484,0.8457,0.8457,0.8456,0.8452,0.8452,0.8453,0.8453,0.8415,0.8413,0.8411,0.8388,0,0,0.8405,0.8404,0,0,0,0,0,0,0,0,0.8525,0.8521,0.8487,0.8485,0.8484,0.8459,0.8464,0.8433,0.8452,0.8464,0.8453,0.8454,0.8429,0.8426,0.8418,0.8387,0.8385,0.8405,0.8404,0.8403,0.8402,0,0,0,0,0,0,0,0.8527,0.8523,0.8478,0.8486,0.8485,0.8483,0.8479,0.8458,0.8444,0.8463,0.8463,0.8459,0.8428,0.842,0.8417,0.8384,0.8405,0.8403,0.8402,0.8401,0.8333,0.8332,0,0,0,0,0,0,0.8531,0.8524,0.8479,0.8477,0.8506,0.8481,0.8477,0.8467,0.8444,0.8441,0.8458,0.8459,0.8423,0.8419,0.8415,0.8387,0.8403,0.8401,0.84,0.8333,0.8333,0.8332,0,0,0,0,0,0,0.8532,0.8527,0.8481,0.8501,0.8495,0.848,0.8468,0.8466,0.8457,0.844,0.8438,0.8452,0.8423,0.8418,0.8395,0.8386,0.84,0.8398,0.8334,0.8333,0.8332,0.833,0,0,0,0,0,0,0.8534,0.8527,0.8519,0.8501,0.8494,0.8462,0.8468,0.8465,0.8454,0.8454,0.8434,0.8431,0.8423,0.8398,0.8393,0.8383,0.8397,0.8335,0.8334,0.8333,0.8331,0.8329,0.8328,0,0,0,0,0,0.8536,0.8519,0.8518,0.8513,0.8483,0.8461,0.8457,0.8449,0.8454,0.8445,0.8434,0.8432,0.8388,0.8396,0.839,0.8379,0.8335,0.8334,0.8333,0.8332,0.833,0.8328,0,0,0,0,0,0,0.8535,0.8516,0.8516,0.8492,0.8478,0.846,0.8449,0.8447,0.8431,0.8432,0.8422,0.8417,0.8394,0.8385,0.8394,0.8356,0.8362,0.8359,0.8363,0.8361,0.836,0.8362,0.8395,0,0,0,0,0,0.8532,0.8517,0.8501,0.8482,0.8475,0.8463,0.8454,0.8449,0.8434,0.8428,0.8415,0.84,0.8383,0.8372,0.8355,0.833,0.8325,0.832,0.8318,0.8317,0.8315,0.8301,0.8298,0.8328,0.8328,0.8328,0,0,0.8526,0.8514,0.8505,0.8482,0.847,0.8454,0.8458,0.8441,0.8429,0.8425,0.8402,0.8393,0.8375,0.8352,0.8341,0.8343,0.8306,0.8315,0.8315,0.8313,0.8299,0.8296,0.8294,0.8327,0.8327,0.8327,0,0,0.8506,0.8496,0.8479,0.8468,0.8451,0.8444,0.844,0.8423,0.8416,0.8394,0.8391,0.8376,0.8347,0.8335,0.8324,0.8302,0.8299,0.8297,0.8288,0.8275,0.8272,0.827,0.8261,0.8259,0.8294,0.8294,0.8294,0,0.85,0.8476,0.847,0.8453,0.8443,0.844,0.8422,0.8412,0.839,0.8383,0.8387,0.835,0.8338,0.8312,0.8306,0.8298,0.8293,0.8298,0.8273,0.8271,0.8269,0.8261,0.8257,0.8294,0.8294,0.8294,0.8294,0,0.8469,0.8453,0.8441,0.8422,0.841,0.8393,0.8384,0.8373,0.837,0.8361,0.8339,0.8325,0.8305,0.8299,0.8295,0.8272,0.8274,0.8276,0.8281,0.8266,0.8258,0.8255,0.8294,0.8294,0.8294,0.8294,0,0,0.8446,0.8425,0.842,0.8412,0.8394,0.8381,0.8364,0.8346,0.8337,0.8323,0.8307,0.8283,0.8285,0.8274,0.8269,0.8257,0.824,0.826,0.8259,0.8256,0.8213,0.8212,0.8208,0.8239,0.8238,0.8238,0.8215,0,0.8424,0.8394,0.8388,0.8362,0.8346,0.8344,0.8329,0.8317,0.8309,0.8295,0.8286,0.8269,0.8273,0.8266,0.8255,0.8244,0.8231,0.8246,0.8224,0.8223,0.8227,0.8204,0.8202,0.8181,0.8211,0.8211,0.8211,0,0.8393,0.8379,0.8352,0.8337,0.833,0.8317,0.83,0.8287,0.8273,0.8268,0.8256,0.8253,0.8234,0.8242,0.8216,0.8227,0.8217,0.8211,0.821,0.8207,0.8215,0.8199,0.8174,0.817,0.8206,0.8206,0.8206,0,0.8378,0.8353,0.8333,0.8326,0.8308,0.8299,0.8291,0.8278,0.8267,0.8253,0.8246,0.8229,0.822,0.8207,0.8199,0.8205,0.8174,0.8181,0.8169,0.8169,0.8161,0.8161,0.8133,0.8157,0.8157,0.8157,0.8157,0,0.8353,0.8336,0.8327,0.8314,0.8295,0.8289,0.827,0.8262,0.825,0.8236,0.8234,0.822,0.8211,0.8196,0.819,0.8169,0.8165,0.816,0.8159,0.816,0.8161,0.8153,0.8154,0.8156,0.8156,0.8156,0.8157,0,0.8333,0.8326,0.8304,0.829,0.8286,0.8272,0.826,0.8248,0.8241,0.8223,0.8218,0.8207,0.819,0.8181,0.8159,0.8155,0.8132,0.8131,0.8137,0.8136,0.8124,0.8125,0.8089,0.8084,0.8112,0.8112,0.8111,0,0.8317,0.8304,0.8289,0.828,0.8272,0.8257,0.8247,0.8241,0.823,0.8214,0.8204,0.8187,0.8172,0.8145,0.8134,0.8117,0.8116,0.8105,0.8113,0.8115,0.8115,0.8115,0.8114,0.8102,0.8102,0.8102,0.8102,0,0.8289,0.8286,0.8273,0.8258,0.8246,0.8234,0.8222,0.8214,0.8206,0.8195,0.8177,0.8167,0.8145,0.8128,0.8111,0.8102,0.81,0.81,0.8096,0.8096,0.81,0.8097,0.8131,0.81,0.81,0.81,0.81,0.81,0.827,0.8258,0.8246,0.8231,0.8222,0.8211,0.8199,0.8191,0.8177,0.8159,0.8157,0.8138,0.8125,0.8102,0.8093,0.8078,0.808,0.8075,0.8074,0.8072,0.8071,0.8103,0.8075,0.8075,0.8075,0.8075,0.8075,0,0.8241,0.8234,0.822,0.8204,0.8192,0.8193,0.818,0.817,0.8154,0.8142,0.8129,0.8109,0.8093,0.8082,0.8065,0.8055,0.8054,0.8051,0.8051,0.8049,0.807,0.8075,0.8052,0.8052,0.8052,0.8052,0.8052,0.8052,0.8225,0.8205,0.8202,0.8178,0.817,0.8153,0.8145,0.8135,0.8126,0.8105,0.8091,0.8085,0.8073,0.8056,0.8041,0.8038,0.8032,0.8029,0.8026,0.8045,0.8048,0.805,0.8054,0.8028,0.8027,0.8006,0.8005,0.8005]},{"header":{"parameterUnit":"m.s-1","parameterCategory":1,"la1":30.2991,"la2":30.254,"lo1":-89.0895,"lo2":-89.0444,"dx":0.0017,"dy":0.0017,"nx":28,"ny":28,"refTime":"2022-11-16T15:00:00:Z","depth":0,"parameterNumber":3,"parameterNumberName":"V-component_of_WINDS"},"data":[0,0,0,0,0,0,0,0,0,0,0,0,0,0,0,0,0,0,0,0,0,0,0,0,0,0,0,0,0,0,0,0,0,0,0,0,0,0,0,0,0,0,0,0,0,0,0,0,0,0,0,0,0,0,0,0,0,0,-7.1545,-7.1547,0,-7.1707,-7.1709,-7.1711,-7.1639,-7.1635,-7.1632,-7.1628,-7.1789,-7.1797,-7.1805,0,0,0,0,0,0,0,0,0,0,0,0,0,-7.1168,-7.1176,-7.1545,-7.1547,-7.1549,-7.1707,-7.1709,-7.1711,-7.164,-7.1635,-7.1631,-7.1626,-7.1786,-7.1796,-7.1805,0,0,0,0,0,0,0,0,0,0,0,0,0,-7.1331,-7.1178,-7.1544,-7.1532,-7.1533,-7.1706,-7.1709,-7.1712,-7.1641,-7.1635,-7.1629,-7.1624,-7.1783,-7.1795,-7.1807,-7.1999,0,0,-7.1843,-7.1848,0,0,0,0,0,0,0,0,-7.1322,-7.1345,-7.1532,-7.1534,-7.1535,-7.1647,-7.1635,-7.1808,-7.1643,-7.16,-7.1628,-7.1621,-7.1746,-7.1761,-7.1804,-7.2007,-7.2014,-7.1844,-7.1852,-7.1857,-7.186,0,0,0,0,0,0,0,-7.1311,-7.1338,-7.1609,-7.1535,-7.1536,-7.1517,-7.1534,-7.1668,-7.1704,-7.1603,-7.1598,-7.1619,-7.1746,-7.1793,-7.1807,-7.2016,-7.1844,-7.1855,-7.1862,-7.1867,-7.2385,-7.2391,0,0,0,0,0,0,-7.13,-7.1329,-7.1603,-7.1614,-7.1412,-7.1529,-7.1548,-7.1617,-7.1703,-7.171,-7.1624,-7.1615,-7.1775,-7.1793,-7.1813,-7.2044,-7.1857,-7.1868,-7.1875,-7.2378,-7.2386,-7.2393,0,0,0,0,0,0,-7.1292,-7.1325,-7.1597,-7.147,-7.1503,-7.1542,-7.162,-7.1623,-7.167,-7.1718,-7.1724,-7.1666,-7.1771,-7.1796,-7.1954,-7.2049,-7.1873,-7.1884,-7.237,-7.238,-7.239,-7.2508,0,0,0,0,0,0,-7.1282,-7.1323,-7.1398,-7.1472,-7.151,-7.1737,-7.1626,-7.1631,-7.1692,-7.1682,-7.1759,-7.1766,-7.1769,-7.1936,-7.1966,-7.2062,-7.1893,-7.2362,-7.2375,-7.2386,-7.2496,-7.2521,-7.2542,0,0,0,0,0,-7.1269,-7.1424,-7.1402,-7.1436,-7.1605,-7.1743,-7.1764,-7.1766,-7.17,-7.1775,-7.1805,-7.1764,-7.2034,-7.1953,-7.1986,-7.2087,-7.2356,-7.2371,-7.2385,-7.2486,-7.2516,-7.2542,0,0,0,0,0,0,-7.1358,-7.1434,-7.141,-7.1594,-7.1663,-7.1731,-7.1825,-7.1798,-7.1885,-7.1872,-7.1868,-7.1886,-7.2049,-7.2083,-7.1993,-7.2277,-7.2184,-7.2206,-7.2249,-7.2279,-7.2301,-7.229,-7.1903,0,0,0,0,0,-7.14,-7.1507,-7.1566,-7.1723,-7.1759,-7.1787,-7.1846,-7.1842,-7.1912,-7.194,-7.1982,-7.205,-7.215,-7.2216,-7.2311,-7.25,-7.2516,-7.2586,-7.2609,-7.2628,-7.2647,-7.2749,-7.2781,-7.2442,-7.2442,-7.2441,0,0,-7.1486,-7.154,-7.1608,-7.1743,-7.1795,-7.1905,-7.1811,-7.1931,-7.2012,-7.1957,-7.211,-7.2143,-7.2219,-7.2393,-7.2472,-7.2427,-7.2744,-7.2647,-7.2661,-7.267,-7.2767,-7.2799,-7.2828,-7.2452,-7.245,-7.2448,0,0,-7.1699,-7.1752,-7.1888,-7.1943,-7.2024,-7.2042,-7.2074,-7.2147,-7.2167,-7.232,-7.2281,-7.2376,-7.2549,-7.2605,-7.2655,-7.289,-7.2854,-7.2921,-7.3041,-7.3141,-7.3168,-7.3191,-7.3275,-7.3305,-7.2939,-7.294,-7.294,0,-7.1796,-7.1962,-7.1961,-7.2085,-7.2145,-7.2102,-7.2239,-7.2291,-7.2399,-7.244,-7.2388,-7.2604,-7.2652,-7.2839,-7.2896,-7.2939,-7.2975,-7.2912,-7.3164,-7.3188,-7.321,-7.3289,-7.3321,-7.2947,-7.2946,-7.2945,-7.2945,0,-7.2076,-7.2191,-7.2291,-7.2398,-7.2469,-7.2599,-7.2617,-7.2688,-7.2677,-7.2699,-7.2855,-7.2911,-7.3016,-7.306,-7.3049,-7.3245,-7.3215,-7.3164,-7.307,-7.325,-7.3324,-7.3355,-7.2958,-7.2955,-7.2953,-7.2951,0,0,-7.235,-7.2456,-7.2493,-7.254,-7.2627,-7.2715,-7.2842,-7.2947,-7.3008,-7.3083,-7.3189,-7.3336,-7.329,-7.3347,-7.3343,-7.343,-7.3612,-7.3368,-7.337,-7.3411,-7.383,-7.3868,-7.3904,-7.3589,-7.3595,-7.3599,-7.3824,0,-7.257,-7.2795,-7.2798,-7.3004,-7.311,-7.3071,-7.3181,-7.3245,-7.327,-7.3362,-7.3387,-7.3492,-7.3422,-7.3457,-7.3542,-7.3572,-7.3696,-7.3556,-7.3686,-7.3691,-7.3669,-7.3943,-7.3983,-7.4193,-7.3853,-7.3858,-7.3862,0,-7.2857,-7.2943,-7.3161,-7.3232,-7.3276,-7.3376,-7.3472,-7.3561,-7.3632,-7.3643,-7.3708,-7.369,-7.3818,-7.372,-7.3896,-7.38,-7.3853,-7.3876,-7.3884,-7.3896,-7.3787,-7.3962,-7.426,-7.4291,-7.3907,-7.3904,-7.39,0,-7.3035,-7.3206,-7.3358,-7.34,-7.3486,-7.3557,-7.3596,-7.3662,-7.3725,-7.3808,-7.3848,-7.3944,-7.3997,-7.4071,-7.4079,-7.4007,-7.4255,-7.4159,-7.4267,-7.4267,-7.4321,-7.4318,-7.4632,-7.4356,-7.4355,-7.4355,-7.4354,0,-7.328,-7.3415,-7.3439,-7.3533,-7.3681,-7.3683,-7.383,-7.3862,-7.3921,-7.4019,-7.399,-7.4082,-7.4087,-7.4181,-7.4187,-7.4331,-7.4355,-7.4367,-7.4367,-7.437,-7.4368,-7.4404,-7.439,-7.4363,-7.4361,-7.436,-7.4358,0,-7.3505,-7.3527,-7.369,-7.3759,-7.3779,-7.3886,-7.3944,-7.4033,-7.4054,-7.4178,-7.4207,-7.424,-7.4349,-7.4364,-7.4491,-7.4495,-7.4669,-7.4653,-7.4645,-7.4643,-7.4751,-7.4741,-7.5099,-7.5146,-7.484,-7.4842,-7.4845,0,-7.366,-7.3763,-7.3843,-7.3908,-7.3951,-7.4055,-7.4119,-7.4124,-7.4192,-7.4281,-7.4358,-7.4465,-7.455,-7.4726,-7.476,-7.4857,-7.4843,-7.4962,-7.4858,-7.4857,-7.4845,-7.4839,-7.4849,-7.4982,-7.4986,-7.4989,-7.4991,0,-7.3933,-7.3939,-7.4033,-7.4133,-7.421,-7.4288,-7.436,-7.4414,-7.4428,-7.4505,-7.4618,-7.4684,-7.4815,-7.492,-7.5016,-7.5054,-7.5025,-7.5024,-7.5054,-7.5058,-7.5049,-7.5055,-7.47,-7.5015,-7.5013,-7.5011,-7.501,-7.5009,-7.4128,-7.4217,-7.4288,-7.4394,-7.445,-7.4519,-7.4605,-7.4638,-7.4732,-7.484,-7.4836,-7.496,-7.5027,-7.5153,-7.5198,-7.5293,-7.5254,-7.5298,-7.5309,-7.532,-7.533,-7.5034,-7.531,-7.531,-7.5309,-7.5308,-7.5308,0,-7.4399,-7.4443,-7.4541,-7.4645,-7.4728,-7.4695,-7.4773,-7.4845,-7.4954,-7.502,-7.5106,-7.5234,-7.5336,-7.5379,-7.5479,-7.5547,-7.5536,-7.5573,-7.5568,-7.5577,-7.536,-7.5324,-7.558,-7.558,-7.558,-7.558,-7.558,-7.558,-7.455,-7.47,-7.4714,-7.4891,-7.4932,-7.5055,-7.5102,-7.5165,-7.5218,-7.5364,-7.5449,-7.5477,-7.5533,-7.5637,-7.5729,-7.5738,-7.5776,-7.5819,-7.5823,-7.5619,-7.5592,-7.5566,-7.5532,-7.5828,-7.5828,-7.6032,-7.6034,-7.6035]}]]